Torna al catalogo

CZ-4C DEB

AttivoLEO
NORAD 40343·DEBRIS·🇨🇳 China

Lanciato Dec 10, 2014 da Jiuquan Satellite Launch Center

Loading…

Prossimi Passaggi (prossime 24 ore)

TLE

AggiornatoSource: Space-Track

Epoca: Sep 14, 2026, 13:16 UTC

1 40343U 14080F   26257.55302289 -.00000020  00000-0  76057-4 0  9995
2 40343  63.3850  95.8056 0387141  11.2720 349.6675 13.44919058577442

Traccia CZ-4C DEB in tempo reale con AllMySat

Download on the App Store